Location: Mount Tamalpais State Park
(37.9108°N, 122.6128°W)
Time: 01:37:33
(UTC-08:00)

Daily predictions for brighter satellites

Satellite Brightness Start Highest point End
(mag) Time Altitude Azimuth Time Altitude Azimuth Time Altitude Azimuth
USA 215 4.3 03:28:41 10° SE 03:32:24 37° ESE 03:32:24 37° ESE
CZ-3 R/B 3.8 03:35:26 54° SW 03:40:00 61° S 03:49:48 10° ESE
Cosmos 1934 Rocket 4.3 04:13:13 35° SSE 04:15:58 67° E 04:22:17 10° NNE
Okean O Rocket 3.1 04:13:25 10° NNE 04:15:57 32° NE 04:15:57 32° NE
Cosmos 2360 4.3 04:18:37 72° NE 04:18:37 72° NE 04:23:50 10° NNE
CZ-4B DEB 4.5 04:15:48 10° NNE 04:21:16 64° ESE 04:22:32 49° SSE
Cosmos 2322 Rocket 3.9 04:21:50 10° SSE 04:26:42 30° ESE 04:31:36 10° NE
Cosmos 158 Rocket 4.0 04:28:55 74° ENE 04:29:02 74° ENE 04:34:13 10° SSE
Cosmos 2123 Rocket 4.2 04:27:49 10° N 04:34:03 72° E 04:40:19 10° SSE
Cosmos 1980 Rocket 2.2 04:36:30 64° NW 04:36:30 64° NW 04:41:41 10° NNE
ATLAS 5 CENTAUR R/B 1.9 04:41:15 57° SSE 04:41:47 62° ESE 04:46:34 10° NE
Cosmos 1821 Rocket 4.1 04:43:18 52° WNW 04:43:18 52° WNW 04:48:49 10° N
Cosmos 489 Rocket 4.4 04:42:13 29° SSW 04:45:38 89° ESE 04:51:55 10° NNE
PAYLOAD B 4.1 04:41:42 10° N 04:47:12 73° WNW 04:48:39 50° SW
Cosmos 1441 Rocket 4.3 04:47:21 10° SSE 04:51:11 47° E 04:55:01 10° NNE
SJ 16-02 2.3 04:53:22 35° NNW 04:53:22 35° NNW 04:56:10 10° N
Cosmos 1048 Rocket 4.0 04:47:01 10° NNW 04:52:11 79° ENE 04:57:17 10° SSE
Cosmos 372 Rocket 3.8 04:52:37 63° W 04:52:54 65° WNW 04:58:00 10° NNE
Cosmos 1733 Rocket 4.0 04:52:50 10° N 04:57:05 47° E 05:01:21 10° SSE
Cosmos 1862 Rocket 4.4 04:54:29 10° S 04:58:42 51° E 05:02:58 10° NNE
IDEFIX/ARIANE 42P 3.5 04:54:49 10° NNE 04:59:53 49° E 05:04:53 10° S
Meteor 2-17 Rocket 4.3 04:54:10 10° S 05:00:12 81° W 05:06:20 10° N
Meteor 1-31 Rocket 3.9 05:00:08 10° N 05:02:18 30° NNW 05:02:18 30° NNW
Cosmos 1933 3.6 05:04:36 50° NW 05:04:36 50° NW 05:07:54 10° N
Hubble Space Telescope 2.4 05:04:15 21° S 05:04:24 22° S 05:07:35 10° SE
Cosmos 1697 Rocket 4.1 05:06:35 21° NW 05:06:35 21° NW 05:09:53 10° N
Cosmos 1125 Rocket 3.7 05:06:54 44° W 05:07:43 48° WNW 05:12:45 10° N
SJ-6F 4.4 05:04:32 10° N 05:08:32 55° WNW 05:08:33 55° WNW
COSMO-SKYMED 1 3.5 05:05:02 10° SSE 05:09:12 50° ENE 05:13:24 10° N
SL-16 R/B 2.2 05:08:00 10° SSW 05:13:40 82° ESE 05:19:22 10° NNE
EXPRESS MD2 4.4 05:14:45 25° NW 05:17:05 62° NE 05:24:54 10° ESE
Okean-O 3.3 05:13:54 10° NNE 05:18:16 57° E 05:22:37 10° S
USA 215 4.0 05:12:59 10° S 05:18:29 29° SW 05:19:49 27° WSW
CZ-2C R/B 3.2 05:16:49 10° NNE 05:21:52 56° E 05:26:56 10° S
CZ-2C R/B 3.6 05:21:36 10° S 05:26:16 74° WSW 05:30:52 10° NNW
Cosmos 1606 3.7 05:22:47 10° SSE 05:26:27 49° E 05:30:08 10° NNE
SEDSat Delta rocket 4.2 05:25:07 24° SW 05:27:06 33° SSW 05:31:11 10° SE
Cosmos 1605 Rocket 4.1 05:22:35 10° SSW 05:28:26 47° W 05:34:17 10° N
Aureole 3 3.2 05:26:57 10° N 05:29:54 61° E 05:33:09 10° SSE
Milstar 3 Cent rocket 4.4 05:27:51 10° SSW 05:32:37 26° SSE 05:39:57 10° E
Cosmos 1633 3.2 05:29:42 10° N 05:33:18 57° E 05:36:54 10° SSE
Cosmos 2100 Rocket 4.1 05:29:40 10° S 05:35:48 80° E 05:41:58 10° N
Meteor 1-26 Rocket 4.3 05:30:45 10° SSW 05:36:34 64° W 05:42:22 10° N
Cosmos 1437 Rocket 4.4 05:33:24 10° N 05:37:12 38° ENE 05:40:55 10° SSE
SKYMED 3 4.5 05:34:49 10° S 05:39:08 73° WSW 05:43:29 10° NNW
CZ-4B R/B 4.0 05:36:35 10° N 05:41:13 29° WNW 05:45:33 12° WSW
COSMOS 2455 3.1 05:36:00 10° NW 05:41:43 46° WSW 05:47:25 10° S
Cosmos 494 Rocket 4.0 05:38:57 10° NNW 05:44:06 86° ENE 05:49:13 10° SSE
Feng Yun 1-1 Rocket 4.2 05:41:15 10° N 05:46:49 67° WNW 05:52:29 10° SSW
Cosmos 405 Rocket 3.5 05:44:19 10° SW 05:47:48 30° WNW 05:51:17 10° NNW
Meteor 1-20 Rocket 4.2 05:47:06 10° N 05:52:56 82° W 05:58:39 10° S
Cosmos 2263 Rocket 2.2 05:47:46 10° NNW 05:53:28 83° WSW 05:59:09 10° SSE
Okean O Rocket 3.5 05:51:41 10° NW 05:53:26 13° WNW 05:53:26 13° WNW
Cosmos 1484 Rocket 4.1 05:52:31 10° NNE 05:56:23 46° E 06:00:15 10° S
Cosmos 1459 Rocket 4.0 05:50:55 10° SSW 05:57:08 74° W 06:03:30 10° N
SKYMED 2 3.9 05:53:05 10° S 05:57:13 44° W 06:01:22 10° NNW
ISS -1.9 05:54:55 10° SSW 05:57:49 30° SE 06:00:44 10° ENE
Iridium 2 4.4 05:55:45 10° S 05:59:30 58° E 06:03:17 10° NNE
Cosmos 2173 Rocket 3.9 05:54:42 10° SSW 06:00:52 70° W 06:06:59 10° N
Cosmos 405 4.4 05:58:24 10° NW 06:00:56 18° W 06:03:27 10° SW
Delta 2 Rocket 4.2 05:57:45 10° SW 06:01:25 37° SSE 06:04:44 10° E
Cosmos 2016 Rocket 4.2 05:55:33 10° S 06:01:52 84° E 06:08:16 10° N
Meteor 1-10 Rocket 4.4 05:57:44 10° S 06:03:17 79° E 06:08:50 10° NNE
Centaur D-1AR AC-36 4.1 06:04:58 10° S 06:06:54 13° SSE 06:09:41 10° SE
Cosmos 1802 Rocket 4.0 06:02:50 10° SSW 06:09:12 72° W 06:15:32 10° N
Sich 1 Rocket 3.5 06:05:34 10° N 06:09:59 83° W 06:14:21 10° S
Cosmos 2061 Rocket 4.0 06:04:03 10° SSW 06:10:12 69° W 06:16:24 10° N
EO 1 Del DPAF 3.2 06:06:33 10° S 06:10:19 62° WSW 06:14:08 10° NNW
Cosmos 2322 Rocket 2.8 06:05:27 10° SW 06:10:36 35° WNW 06:15:48 10° N
Landsat 4 4.0 06:07:37 10° S 06:11:10 44° W 06:14:45 10° NNW
Meteor 2-6 Rocket 4.2 06:08:08 10° S 06:13:39 86° W 06:19:06 10° N
Cosmos 1461 3.1 06:10:48 10° SW 06:15:01 57° WNW 06:19:31 10° NNE
Cosmos 1703 Rocket 3.7 06:11:34 10° SSW 06:15:57 57° W 06:20:22 10° N
Cosmos 2360 Rocket 2.2 06:12:15 10° SSW 06:17:54 73° WNW 06:23:35 10° NNE
Okean 2 Rocket 4.0 06:15:52 10° N 06:20:18 56° E 06:24:44 10° SSE
Lacrosse 4 Rocket 2.3 06:18:42 10° S 06:22:37 52° ESE 06:26:34 10° NE
Aureole 2 Rocket 2.5 06:20:45 10° SW 06:23:14 32° WNW 06:25:45 10° N
Radarsat Rocket 4.3 06:18:08 10° N 06:23:38 44° WNW 06:29:31 10° SW
